map of XLS home
Great Circle Mapper logo
XLS - Airport
Location
City:  St. Louis, Senegal
ICAO / IATA:GOSS / XLS

Details
Type:Airport (Aerodrome, Airfield)
Use:Public/Civil
Latitude:16°03'03"N (16.050761)
Longitude:16°27'47"W (-16.463171)
Datum:WGS 1984
Elevation:9 ft (3 m)
Runways:2
Longest:6230 × 100 ft (1899 × 30.5 m), paved

Time
Time Zone:UTC+0
Local Time:

Weather
METAR:GOSS 241200Z 32008KT 9999 BKN013 30/24 Q1015
TAF:GOSS 241130Z 2412/2512 30008KT 9999 SCT013= TAF GOGS 241130Z 2412/2512 26006KT 9999 SCT015

Related Locations
Nearby:
Farthest:OLJ: 12229 mi / 19681 km
Olpoi [North West Santo], Espíritu Santo Island, SAM, VU

Find:

   beyond  
but within

Other Information
Maps:
NOTAMs:
Links:
Sources:

  
flag of Senegal   

Sectional Chart

Flight Planning
at skyvector.com

Satellite Image

Google Maps Satellite View

 

Copyright © 2004-2014 Karl L. Swartz. All rights reserved.
The Great Circle Mapper name and logo are trademarks of the Great Circle Mapper.
All other trademarks mentioned herein belong to their respective owners.
Please see credits for attibutions and further copyright information.

  Follow gcmap on Facebook Follow gcmap on Twitter

hCard Microformat

Geo Microformat